| time (UTC) | temp F | wind direction | speed MPH | gust MPH | rain 1hr in | rain 24hr in | rain mn in | humidity % | barometer mb |
| 20260901145043 | 67 | 118 | 5.0 | 9.0 | 0.16 | 0.76 | 0.76 | 1015.6 | |
| 20260901144528 | 67 | 3 | 0.0 | 8.0 | 0.05 | 0.65 | 0.65 | 1017.3 | |
| 20260901144028 | 67 | 14 | 3.0 | 8.0 | 0.04 | 0.64 | 0.64 | 1016.7 | |
| 20260901143528 | 67 | 32 | 2.0 | 6.0 | 0.04 | 0.64 | 0.64 | 1016.1 | |
| 20260901143027 | 67 | 0 | 2.0 | 9.0 | 0.04 | 0.64 | 0.64 | 1015.9 | |
| 20260901142528 | 67 | 0 | 1.0 | 9.0 | 0.04 | 0.64 | 0.64 | 1015.9 | |
| 20260901142028 | 67 | 64 | 2.0 | 6.0 | 0.04 | 0.64 | 0.64 | 1016.0 | |
| 20260901141527 | 67 | 63 | 2.0 | 6.0 | 0.03 | 0.63 | 0.63 | 1015.9 | |
| 20260901141058 | 67 | 63 | 3.0 | 6.0 | 0.02 | 0.62 | 0.62 | 1015.8 | |
| 20260901140528 | 67 | 7 | 2.0 | 6.0 | 0.01 | 0.61 | 0.61 | 1016.2 | |
| 20260901140027 | 67 | 60 | 0.0 | 5.0 | 0.00 | 0.60 | 0.60 | 1016.2 | |
| 20260901135528 | 67 | 58 | 0.0 | 6.0 | 0.00 | 0.60 | 0.60 | 1016.1 | |
| 20260901135043 | 67 | 58 | 0.0 | 6.0 | 0.00 | 0.60 | 0.60 | 1016.1 | |
| 20260901134528 | 67 | 58 | 0.0 | 6.0 | 0.00 | 0.60 | 0.60 | 1015.8 | |
| 20260901134027 | 67 | 41 | 0.0 | 6.0 | 0.02 | 0.60 | 0.60 | 1016.1 | |
| 20260901133528 | 66 | 41 | 0.0 | 6.0 | 0.02 | 0.60 | 0.60 | 1016.0 | |
| 20260901133027 | 66 | 41 | 2.0 | 6.0 | 0.03 | 0.60 | 0.60 | 1016.0 | |
| 20260901132527 | 66 | 337 | 2.0 | 5.0 | 0.05 | 0.60 | 0.60 | 1016.0 | |
| 20260901132027 | 66 | 95 | 0.0 | 6.0 | 0.06 | 0.60 | 0.60 | 1015.8 | |
| 20260901131527 | 66 | 82 | 3.0 | 6.0 | 0.06 | 0.60 | 0.60 | 1015.8 | |
| 20260901131027 | 66 | 38 | 2.0 | 8.0 | 0.06 | 0.60 | 0.60 | 1016.2 | |
| 20260901130527 | 66 | 75 | 2.0 | 8.0 | 0.06 | 0.60 | 0.60 | 1016.4 | |
| 20260901130057 | 66 | 55 | 1.0 | 6.0 | 0.06 | 0.60 | 0.60 | 1016.3 | |
| 20260901125527 | 66 | 62 | 1.0 | 3.0 | 0.06 | 0.60 | 0.60 | 1016.3 | |
| 20260901125027 | 66 | 62 | 1.0 | 5.0 | 0.06 | 0.60 | 0.60 | 1016.5 | |
| 20260901124527 | 66 | 62 | 0.0 | 5.0 | 0.06 | 0.60 | 0.60 | 1016.6 | |
| 20260901124027 | 66 | 62 | 2.0 | 5.0 | 0.04 | 0.58 | 0.58 | 1016.5 | |
| 20260901123528 | 66 | 11 | 2.0 | 6.0 | 0.04 | 0.58 | 0.58 | 1016.7 | |
| 20260901123028 | 66 | 19 | 1.0 | 9.0 | 0.03 | 0.57 | 0.57 | 1016.8 | |
| 20260901122528 | 66 | 18 | 2.0 | 9.0 | 0.01 | 0.55 | 0.55 | 1016.8 | |
| 20260901122057 | 66 | 45 | 0.0 | 8.0 | 0.01 | 0.54 | 0.54 | 1016.9 | |
| 20260901121527 | 66 | 18 | 1.0 | 8.0 | 0.02 | 0.54 | 0.54 | 1016.9 | |
| 20260901121028 | 67 | 0 | 5.0 | 8.0 | 0.03 | 0.54 | 0.54 | 1016.6 | |
| 20260901120545 | 67 | 8 | 3.0 | 5.0 | 0.04 | 0.54 | 0.54 | 1016.6 | |
| 20260901120028 | 67 | 8 | 0.0 | 5.0 | 0.05 | 0.54 | 0.54 | 1016.6 | |
| 20260901115527 | 66 | 8 | 0.0 | 5.0 | 0.06 | 0.54 | 0.54 | 1016.6 | |
| 20260901115028 | 66 | 8 | 0.0 | 3.0 | 0.08 | 0.54 | 0.54 | 1016.6 | |
| 20260901114528 | 66 | 8 | 0.0 | 3.0 | 0.09 | 0.54 | 0.54 | 1016.6 | |
| 20260901114027 | 66 | 8 | 0.0 | 3.0 | 0.09 | 0.54 | 0.54 | 1016.6 | |
| 20260901113527 | 66 | 8 | 0.0 | 3.0 | 0.10 | 0.54 | 0.54 | 1016.4 | |
| 20260901113027 | 66 | 8 | 0.0 | 3.0 | 0.10 | 0.54 | 0.54 | 1016.6 | |
| 20260901112527 | 66 | 8 | 0.0 | 5.0 | 0.11 | 0.54 | 0.54 | 1016.6 | |
| 20260901112028 | 66 | 8 | 0.0 | 5.0 | 0.11 | 0.53 | 0.53 | 1016.5 | |
| 20260901082027 | 68 | 266 | 0.0 | 0.0 | 0.00 | 0.00 | 0.00 | 1016.3 | |
| 20260901081542 | 68 | 266 | 0.0 | 0.0 | 0.00 | 0.00 | 0.00 | 1016.4 | |
| 20260901081027 | 68 | 266 | 0.0 | 0.0 | 0.00 | 0.00 | 0.00 | 1016.3 | |
| 20260901080527 | 68 | 267 | 0.0 | 0.0 | 0.00 | 0.00 | 0.00 | 1016.3 | |
| 20260901080027 | 68 | 266 | 0.0 | 0.0 | 0.00 | 0.00 | 0.00 | 1016.3 | |
| 20260901075527 | 68 | 266 | 0.0 | 0.0 | 0.00 | 0.00 | 0.00 | 1016.4 | |
| 20260901075042 | 68 | 266 | 0.0 | 0.0 | 0.00 | 0.00 | 0.00 | 1016.6 | |
| 20260901074528 | 68 | 266 | 0.0 | 0.0 | 0.00 | 0.00 | 0.00 | 1016.8 | |
| 20260901074027 | 68 | 266 | 0.0 | 0.0 | 0.00 | 0.00 | 0.00 | 1016.7 | |
| 20260901073527 | 68 | 266 | 0.0 | 0.0 | 0.00 | 0.00 | 0.00 | 1016.9 | |
| 20260901073027 | 68 | 266 | 0.0 | 0.0 | 0.00 | 0.00 | 0.00 | 1016.7 | |
| 20260901072528 | 68 | 266 | 0.0 | 0.0 | 0.00 | 0.00 | 0.00 | 1016.6 | |
| 20260901072027 | 68 | 266 | 0.0 | 0.0 | 0.00 | 0.00 | 0.00 | 1016.5 | |
| 20260901071542 | 68 | 266 | 0.0 | 0.0 | 0.00 | 0.00 | 0.00 | 1016.4 | |
| 20260901071027 | 68 | 266 | 0.0 | 0.0 | 0.00 | 0.00 | 0.00 | 1016.5 | |
| 20260901070528 | 68 | 266 | 0.0 | 0.0 | 0.00 | 0.00 | 0.00 | 1016.5 | |
| 20260901070027 | 68 | 266 | 0.0 | 0.0 | 0.00 | 0.00 | 0.00 | 1016.5 | |
| 20260901065528 | 68 | 266 | 0.0 | 0.0 | 0.00 | 0.00 | 0.00 | 1016.6 | |
| 20260901065027 | 67 | 266 | 0.0 | 0.0 | 0.00 | 0.00 | 0.00 | 1016.6 | |
| 20260901064528 | 67 | 266 | 0.0 | 0.0 | 0.00 | 0.00 | 0.00 | 1016.7 | |
| 20260901064027 | 67 | 266 | 0.0 | 0.0 | 0.00 | 0.00 | 0.00 | 1016.7 | |
| 20260901063527 | 67 | 266 | 0.0 | 0.0 | 0.00 | 0.00 | 0.00 | 1016.7 | |
| 20260901063027 | 67 | 266 | 0.0 | 0.0 | 0.00 | 0.00 | 0.00 | 1016.7 | |
| 20260901062527 | 67 | 266 | 0.0 | 0.0 | 0.00 | 0.00 | 0.00 | 1016.8 | |
| 20260901062027 | 67 | 266 | 0.0 | 0.0 | 0.00 | 0.00 | 0.00 | 1016.9 | |
| 20260901061527 | 67 | 266 | 0.0 | 0.0 | 0.00 | 0.00 | 0.00 | 1017.0 | |
| 20260901061028 | 67 | 266 | 0.0 | 0.0 | 0.00 | 0.00 | 0.00 | 1017.1 | |
| 20260901060527 | 67 | 266 | 0.0 | 0.0 | 0.00 | 0.00 | 0.00 | 1017.2 | |
| 20260901060027 | 67 | 266 | 0.0 | 0.0 | 0.00 | 0.00 | 0.00 | 1017.3 | |
| 20260901055542 | 67 | 266 | 0.0 | 0.0 | 0.00 | 0.00 | 0.00 | 1017.5 | |
| 20260901055027 | 67 | 266 | 0.0 | 0.0 | 0.00 | 0.00 | 0.00 | 1017.6 | |
| 20260901054527 | 67 | 266 | 0.0 | 0.0 | 0.00 | 0.00 | 0.00 | 1017.5 | |
| 20260901054027 | 67 | 266 | 0.0 | 0.0 | 0.00 | 0.00 | 0.00 | 1017.5 | |
| 20260901053527 | 67 | 266 | 0.0 | 0.0 | 0.00 | 0.00 | 0.00 | 1017.5 | |
| 20260901053043 | 67 | 266 | 0.0 | 0.0 | 0.00 | 0.00 | 0.00 | 1017.4 | |
| 20260901052543 | 67 | 266 | 0.0 | 0.0 | 0.00 | 0.00 | 0.00 | 1017.3 | |
| 20260901052027 | 67 | 266 | 0.0 | 0.0 | 0.00 | 0.00 | 0.00 | 1017.5 | |
| 20260901051527 | 68 | 266 | 0.0 | 0.0 | 0.00 | 0.00 | 0.00 | 1017.5 | |
| 20260901051057 | 68 | 266 | 0.0 | 0.0 | 0.00 | 0.00 | 0.00 | 1017.3 | |
| 20260901050527 | 68 | 266 | 0.0 | 0.0 | 0.00 | 0.00 | 0.00 | 1017.3 | |
| 20260901050027 | 68 | 266 | 0.0 | 0.0 | 0.00 | 0.00 | 0.00 | 1017.8 | |
| 20260901045528 | 67 | 266 | 0.0 | 0.0 | 0.00 | 0.00 | 0.00 | 1017.8 | |
| 20260901045027 | 67 | 266 | 0.0 | 0.0 | 0.00 | 0.00 | 0.00 | 1017.9 | |
| 20260901044527 | 67 | 266 | 0.0 | 0.0 | 0.00 | 0.00 | 0.00 | 1017.8 | |
| 20260901044029 | 67 | 266 | 0.0 | 0.0 | 0.00 | 0.00 | 0.00 | 1017.7 | |
| 20260901043542 | 67 | 266 | 0.0 | 0.0 | 0.00 | 0.00 | 0.00 | 1017.7 | |
| 20260901043027 | 67 | 266 | 0.0 | 0.0 | 0.00 | 0.00 | 0.00 | 1017.5 | |
| 20260901042527 | 67 | 266 | 0.0 | 0.0 | 0.00 | 0.00 | 0.00 | 1017.6 | |
| 20260901042028 | 67 | 266 | 0.0 | 0.0 | 0.00 | 0.00 | 0.00 | 1017.7 | |
| 20260901041528 | 67 | 266 | 0.0 | 0.0 | 0.00 | 0.00 | 0.00 | 1017.7 | |
| 20260901041027 | 67 | 266 | 0.0 | 0.0 | 0.00 | 0.00 | 0.00 | 1017.7 | |
| 20260901040527 | 67 | 266 | 0.0 | 0.0 | 0.00 | 0.00 | 0.00 | 1017.8 | |
| 20260901040027 | 67 | 266 | 0.0 | 0.0 | 0.00 | 0.00 | 0.00 | 1017.8 | |
| 20260901035527 | 67 | 266 | 0.0 | 0.0 | 0.00 | 0.00 | 0.00 | 1017.7 | |
| 20260901035027 | 67 | 266 | 0.0 | 0.0 | 0.00 | 0.00 | 0.00 | 1017.7 | |
| 20260901034613 | 67 | 266 | 0.0 | 0.0 | 0.00 | 0.00 | 0.00 | 1017.8 | |
| 20260901034027 | 67 | 266 | 0.0 | 0.0 | 0.00 | 0.00 | 0.00 | 1017.7 | |
| 20260901033527 | 67 | 266 | 0.0 | 0.0 | 0.00 | 0.00 | 0.00 | 1017.7 | |
| 20260901033027 | 67 | 266 | 0.0 | 0.0 | 0.00 | 0.00 | 0.00 | 1017.5 | |
| 20260901032527 | 67 | 266 | 0.0 | 0.0 | 0.00 | 0.00 | 0.00 | 1017.7 | |
| 20260901032027 | 67 | 266 | 0.0 | 2.0 | 0.00 | 0.00 | 0.00 | 1017.9 | |
| 20260901031527 | 67 | 266 | 0.0 | 2.0 | 0.00 | 0.00 | 0.00 | 1017.8 | |
| 20260901031029 | 67 | 266 | 0.0 | 0.0 | 0.00 | 0.00 | 0.00 | 1017.6 | |
| 20260901030527 | 67 | 266 | 0.0 | 0.0 | 0.00 | 0.00 | 0.00 | 1017.7 | |
| 20260901030027 | 67 | 266 | 0.0 | 0.0 | 0.00 | 0.00 | 0.00 | 1017.7 | |
| 20260901025612 | 67 | 266 | 0.0 | 0.0 | 0.00 | 0.00 | 0.00 | 1017.5 | |
| 20260901025026 | 67 | 266 | 0.0 | 0.0 | 0.00 | 0.00 | 0.00 | 1017.6 | |
| 20260901024527 | 67 | 266 | 0.0 | 0.0 | 0.00 | 0.00 | 0.00 | 1017.6 | |
| 20260901024026 | 67 | 266 | 0.0 | 0.0 | 0.00 | 0.00 | 0.00 | 1017.8 | |
| 20260901023542 | 68 | 266 | 0.0 | 0.0 | 0.00 | 0.00 | 0.00 | 1017.8 | |
| 20260901023042 | 68 | 266 | 0.0 | 0.0 | 0.00 | 0.00 | 0.00 | 1018.0 | |
| 20260901022527 | 68 | 266 | 0.0 | 0.0 | 0.00 | 0.00 | 0.00 | 1018.0 | |
| 20260901022027 | 68 | 266 | 0.0 | 0.0 | 0.00 | 0.00 | 0.00 | 1018.0 | |
| 20260901021528 | 67 | 266 | 0.0 | 0.0 | 0.00 | 0.00 | 0.00 | 1018.0 | |
| 20260901021027 | 67 | 266 | 0.0 | 0.0 | 0.00 | 0.00 | 0.00 | 1018.1 | |
| 20260901020527 | 67 | 266 | 0.0 | 0.0 | 0.00 | 0.00 | 0.00 | 1018.2 | |
| 20260901020027 | 67 | 266 | 0.0 | 0.0 | 0.00 | 0.00 | 0.00 | 1018.2 | |
| 20260901015528 | 67 | 266 | 0.0 | 0.0 | 0.00 | 0.00 | 0.00 | 1018.2 | |
| 20260901015027 | 67 | 266 | 0.0 | 0.0 | 0.00 | 0.00 | 0.00 | 1018.1 | |
| 20260901014527 | 67 | 266 | 0.0 | 0.0 | 0.00 | 0.00 | 0.00 | 1018.2 | |
| 20260901014028 | 67 | 266 | 0.0 | 0.0 | 0.00 | 0.00 | 0.00 | 1018.1 | |
| 20260901013527 | 67 | 266 | 0.0 | 0.0 | 0.00 | 0.00 | 0.00 | 1018.1 | |
| 20260901013041 | 67 | 266 | 0.0 | 0.0 | 0.00 | 0.00 | 0.00 | 1018.0 | |
| 20260901012526 | 67 | 266 | 0.0 | 0.0 | 0.00 | 0.00 | 0.00 | 1018.0 | |
| 20260901012027 | 67 | 266 | 0.0 | 0.0 | 0.00 | 0.00 | 0.00 | 1018.0 | |
| 20260901011526 | 67 | 266 | 0.0 | 0.0 | 0.00 | 0.00 | 0.00 | 1017.9 | |
| 20260901011027 | 67 | 266 | 0.0 | 0.0 | 0.00 | 0.00 | 0.00 | 1017.8 | |
| 20260901010526 | 67 | 266 | 0.0 | 0.0 | 0.00 | 0.00 | 0.00 | 1017.9 | |
| 20260901010042 | 67 | 266 | 0.0 | 0.0 | 0.00 | 0.00 | 0.00 | 1017.7 | |
| 20260901005527 | 67 | 266 | 0.0 | 0.0 | 0.00 | 0.00 | 0.00 | 1018.0 | |
| 20260901005026 | 67 | 266 | 0.0 | 0.0 | 0.00 | 0.00 | 0.00 | 1018.0 | |
| 20260901004527 | 67 | 266 | 0.0 | 0.0 | 0.00 | 0.00 | 0.00 | 1018.1 | |
| 20260901004027 | 67 | 266 | 0.0 | 0.0 | 0.00 | 0.00 | 0.00 | 1018.0 | |
| 20260901003527 | 68 | 266 | 0.0 | 0.0 | 0.00 | 0.00 | 0.00 | 1018.0 | |
| 20260901003026 | 68 | 266 | 0.0 | 0.0 | 0.00 | 0.00 | 0.00 | 1017.8 | |
| 20260901002526 | 68 | 266 | 0.0 | 0.0 | 0.00 | 0.00 | 0.00 | 1018.0 | |
| 20260901002027 | 68 | 266 | 0.0 | 0.0 | 0.00 | 0.00 | 0.00 | 1018.0 | |
| 20260901001527 | 68 | 266 | 0.0 | 0.0 | 0.00 | 0.00 | 0.00 | 1018.0 | |
| 20260901001027 | 68 | 266 | 0.0 | 0.0 | 0.00 | 0.00 | 0.00 | 1018.1 | |
| 20260901000542 | 68 | 266 | 0.0 | 0.0 | 0.00 | 0.00 | 0.00 | 1018.0 | |
| 20260901000027 | 68 | 266 | 0.0 | 0.0 | 0.00 | 0.00 | 0.00 | 1018.1 | |
| 20260831235542 | 68 | 266 | 0.0 | 0.0 | 0.00 | 0.00 | 0.00 | 1018.0 | |
| 20260831235028 | 68 | 266 | 0.0 | 0.0 | 0.00 | 0.00 | 0.00 | 1017.9 | |
| 20260831234527 | 68 | 266 | 0.0 | 0.0 | 0.00 | 0.00 | 0.00 | 1018.0 | |
| 20260831234027 | 68 | 266 | 0.0 | 0.0 | 0.00 | 0.00 | 0.00 | 1018.1 | |
| 20260831233527 | 68 | 266 | 0.0 | 0.0 | 0.00 | 0.00 | 0.00 | 1018.1 | |
| 20260831233027 | 68 | 266 | 0.0 | 0.0 | 0.00 | 0.00 | 0.00 | 1018.2 | |
| 20260831232526 | 68 | 266 | 0.0 | 0.0 | 0.00 | 0.00 | 0.00 | 1018.2 | |
| 20260831232027 | 68 | 266 | 0.0 | 0.0 | 0.00 | 0.00 | 0.00 | 1018.1 | |
| 20260831231528 | 68 | 266 | 0.0 | 0.0 | 0.00 | 0.00 | 0.00 | 1018.2 | |
| 20260831231026 | 68 | 266 | 0.0 | 0.0 | 0.00 | 0.00 | 0.00 | 1018.3 | |
| 20260831230527 | 68 | 266 | 0.0 | 0.0 | 0.00 | 0.00 | 0.00 | 1018.4 | |
| 20260831230028 | 68 | 266 | 0.0 | 3.0 | 0.00 | 0.00 | 0.00 | 1018.4 | |
| 20260831225527 | 68 | 266 | 0.0 | 5.0 | 0.00 | 0.00 | 0.00 | 1018.6 | |
| 20260831225026 | 68 | 266 | 2.0 | 5.0 | 0.00 | 0.00 | 0.00 | 1018.6 | |
| 20260831224527 | 68 | 267 | 0.0 | 6.0 | 0.00 | 0.00 | 0.00 | 1018.7 | |
| 20260831224026 | 69 | 267 | 0.0 | 6.0 | 0.00 | 0.00 | 0.00 | 1018.7 | |
| 20260831223527 | 69 | 263 | 3.0 | 6.0 | 0.00 | 0.00 | 0.00 | 1018.7 | |
| 20260831223026 | 69 | 278 | 2.0 | 5.0 | 0.00 | 0.00 | 0.00 | 1018.9 | |
| 20260831222527 | 69 | 280 | 3.0 | 6.0 | 0.00 | 0.00 | 0.00 | 1018.8 | |
| 20260831222027 | 69 | 280 | 0.0 | 6.0 | 0.00 | 0.00 | 0.00 | 1018.9 | |
| 20260831221542 | 70 | 285 | 2.0 | 8.0 | 0.00 | 0.00 | 0.00 | 1019.0 | |
| 20260831221026 | 70 | 278 | 3.0 | 8.0 | 0.00 | 0.00 | 0.00 | 1018.9 | |
| 20260831220526 | 71 | 284 | 6.0 | 11.0 | 0.00 | 0.00 | 0.00 | 1018.9 | |
| 20260831220026 | 72 | 267 | 2.0 | 13.0 | 0.00 | 0.00 | 0.00 | 1018.9 | |
| 20260831215526 | 73 | 265 | 0.0 | 13.0 | 0.00 | 0.00 | 0.00 | 1018.9 | |
| 20260831215027 | 74 | 257 | 5.0 | 9.0 | 0.00 | 0.00 | 0.00 | 1018.8 | |
| 20260831214527 | 74 | 112 | 0.0 | 0.0 | 0.00 | 0.00 | 0.00 | 1018.6 | |
| 20260831214026 | 74 | 112 | 0.0 | 0.0 | 0.00 | 0.00 | 0.00 | 1018.4 | |
| 20260831213542 | 74 | 112 | 0.0 | 0.0 | 0.00 | 0.00 | 0.00 | 1018.4 | |
| 20260831213026 | 75 | 112 | 0.0 | 0.0 | 0.00 | 0.00 | 0.00 | 1018.5 | |
| 20260831212611 | 75 | 112 | 0.0 | 0.0 | 0.00 | 0.00 | 0.00 | 1018.5 | |
| 20260831212026 | 75 | 112 | 0.0 | 0.0 | 0.00 | 0.00 | 0.00 | 1018.4 | |
| 20260831211526 | 75 | 112 | 0.0 | 0.0 | 0.00 | 0.00 | 0.00 | 1018.4 | |
| 20260831211026 | 76 | 112 | 0.0 | 0.0 | 0.00 | 0.00 | 0.00 | 1018.3 | |
| 20260831210526 | 76 | 112 | 0.0 | 2.0 | 0.00 | 0.00 | 0.00 | 1018.3 | |
| 20260831210027 | 76 | 112 | 0.0 | 2.0 | 0.00 | 0.00 | 0.00 | 1018.4 | |
| 20260831205526 | 76 | 112 | 0.0 | 0.0 | 0.00 | 0.00 | 0.00 | 1018.3 | |
| 20260831205027 | 76 | 112 | 0.0 | 0.0 | 0.00 | 0.00 | 0.00 | 1018.2 | |
| 20260831204526 | 75 | 112 | 0.0 | 0.0 | 0.00 | 0.00 | 0.00 | 1018.2 | |
| 20260831204027 | 75 | 112 | 0.0 | 3.0 | 0.00 | 0.00 | 0.00 | 1018.3 | |
| 20260831203527 | 76 | 112 | 0.0 | 3.0 | 0.00 | 0.00 | 0.00 | 1018.3 | |
| 20260831203026 | 76 | 112 | 0.0 | 2.0 | 0.00 | 0.00 | 0.00 | 1018.3 | |
| 20260831202526 | 76 | 112 | 0.0 | 2.0 | 0.00 | 0.00 | 0.00 | 1018.4 | |
| 20260831202026 | 76 | 112 | 0.0 | 0.0 | 0.00 | 0.00 | 0.00 | 1018.4 | |
| 20260831201527 | 76 | 112 | 0.0 | 2.0 | 0.00 | 0.00 | 0.00 | 1018.3 | |
| 20260831201026 | 76 | 112 | 0.0 | 8.0 | 0.00 | 0.00 | 0.00 | 1018.3 | |
| 20260831200526 | 77 | 112 | 0.0 | 8.0 | 0.00 | 0.00 | 0.00 | 1018.3 | |
| 20260831200026 | 77 | 127 | 1.0 | 6.0 | 0.00 | 0.00 | 0.00 | 1018.3 | |
| 20260831195528 | 77 | 127 | 0.0 | 6.0 | 0.00 | 0.00 | 0.00 | 1018.2 | |
| 20260831195026 | 78 | 134 | 1.0 | 6.0 | 0.00 | 0.00 | 0.00 | 1018.3 | |
| 20260831194526 | 78 | 171 | 2.0 | 5.0 | 0.00 | 0.00 | 0.00 | 1018.4 | |
| 20260831194026 | 78 | 171 | 1.0 | 3.0 | 0.00 | 0.00 | 0.00 | 1018.4 | |
| 20260831193526 | 78 | 217 | 0.0 | 5.0 | 0.00 | 0.00 | 0.00 | 1018.5 | |
| 20260831193026 | 78 | 215 | 1.0 | 8.0 | 0.00 | 0.00 | 0.00 | 1018.5 | |
| 20260831192526 | 78 | 59 | 2.0 | 8.0 | 0.00 | 0.00 | 0.00 | 1018.7 | |
| 20260831192026 | 78 | 79 | 0.0 | 6.0 | 0.00 | 0.00 | 0.00 | 1018.5 | |
| 20260831191526 | 77 | 223 | 0.0 | 8.0 | 0.00 | 0.00 | 0.00 | 1018.6 | |
| 20260831191027 | 77 | 99 | 0.0 | 8.0 | 0.00 | 0.00 | 0.00 | 1018.6 | |
| 20260831190526 | 77 | 163 | 6.0 | 8.0 | 0.00 | 0.00 | 0.00 | 1018.8 | |
| 20260831190026 | 77 | 167 | 2.0 | 5.0 | 0.00 | 0.00 | 0.00 | 1019.0 | |
| 20260831185526 | 77 | 288 | 0.0 | 5.0 | 0.00 | 0.00 | 0.00 | 1019.1 | |
| 20260831185026 | 77 | 170 | 1.0 | 5.0 | 0.00 | 0.00 | 0.00 | 1019.2 | |
| 20260831184526 | 77 | 153 | 2.0 | 5.0 | 0.00 | 0.00 | 0.00 | 1019.2 | |
| 20260831184027 | 77 | 153 | 0.0 | 5.0 | 0.00 | 0.00 | 0.00 | 1019.3 | |
| 20260831183528 | 77 | 153 | 0.0 | 5.0 | 0.00 | 0.00 | 0.00 | 1019.2 | |
| 20260831183026 | 76 | 128 | 0.0 | 3.0 | 0.00 | 0.00 | 0.00 | 1019.2 | |
| 20260831182526 | 76 | 22 | 0.0 | 3.0 | 0.00 | 0.00 | 0.00 | 1019.2 | |
| 20260831182026 | 76 | 90 | 0.0 | 8.0 | 0.00 | 0.00 | 0.00 | 1019.4 | |
| 20260831181526 | 76 | 89 | 0.0 | 9.0 | 0.00 | 0.00 | 0.00 | 1019.4 | |
| 20260831181056 | 76 | 81 | 2.0 | 9.0 | 0.00 | 0.00 | 0.00 | 1019.4 | |
| 20260831180527 | 76 | 92 | 3.0 | 8.0 | 0.00 | 0.00 | 0.00 | 1019.4 | |
| 20260831180026 | 76 | 95 | 2.0 | 5.0 | 0.00 | 0.00 | 0.00 | 1019.5 | |
| 20260831175526 | 76 | 109 | 0.0 | 8.0 | 0.00 | 0.00 | 0.00 | 1019.6 | |
| 20260831175026 | 76 | 127 | 2.0 | 8.0 | 0.00 | 0.00 | 0.00 | 1019.5 | |
| 20260831174527 | 76 | 55 | 2.0 | 6.0 | 0.00 | 0.00 | 0.00 | 1019.6 | |
| 20260831174026 | 75 | 92 | 2.0 | 6.0 | 0.00 | 0.00 | 0.00 | 1019.7 | |
| 20260831173526 | 75 | 189 | 2.0 | 6.0 | 0.00 | 0.00 | 0.00 | 1019.7 | |
| 20260831173041 | 75 | 159 | 0.0 | 5.0 | 0.00 | 0.00 | 0.00 | 1019.7 | |
| 20260831172527 | 75 | 159 | 1.0 | 8.0 | 0.00 | 0.00 | 0.00 | 1019.8 | |
| 20260831172026 | 75 | 109 | 1.0 | 8.0 | 0.00 | 0.00 | 0.00 | 1019.8 | |
| 20260831171526 | 74 | 99 | 5.0 | 6.0 | 0.00 | 0.00 | 0.00 | 1019.7 | |
| 20260831171041 | 75 | 159 | 2.0 | 11.0 | 0.00 | 0.00 | 0.00 | 1019.7 | |
| 20260831170526 | 75 | 152 | 0.0 | 11.0 | 0.00 | 0.00 | 0.00 | 1019.8 | |
| 20260831170042 | 75 | 72 | 5.0 | 11.0 | 0.00 | 0.00 | 0.00 | 1019.9 | |
| 20260831165528 | 75 | 190 | 3.0 | 9.0 | 0.00 | 0.00 | 0.00 | 1019.8 | |
| 20260831165127 | 75 | 140 | 1.0 | 9.0 | 0.00 | 0.00 | 0.00 | 1020.1 | |
| 20260831164526 | 75 | 53 | 2.0 | 9.0 | 0.00 | 0.00 | 0.00 | 1020.2 | |
| 20260831164026 | 75 | 128 | 5.0 | 13.0 | 0.00 | 0.00 | 0.00 | 1020.5 | |
| 20260831163526 | 76 | 103 | 1.0 | 13.0 | 0.00 | 0.00 | 0.00 | 1020.5 | |
| 20260831163026 | 76 | 58 | 0.0 | 13.0 | 0.00 | 0.00 | 0.00 | 1020.5 | |
| 20260831162526 | 76 | 146 | 1.0 | 13.0 | 0.00 | 0.00 | 0.00 | 1020.6 | |
| 20260831162026 | 76 | 110 | 1.0 | 8.0 | 0.00 | 0.00 | 0.00 | 1020.5 | |
| 20260831161526 | 75 | 31 | 0.0 | 5.0 | 0.00 | 0.00 | 0.00 | 1020.9 | |
| 20260831161026 | 75 | 31 | 3.0 | 11.0 | 0.00 | 0.00 | 0.00 | 1020.9 | |
| 20260831160541 | 75 | 105 | 0.0 | 11.0 | 0.00 | 0.00 | 0.00 | 1020.8 | |
| 20260831160026 | 74 | 192 | 0.0 | 9.0 | 0.00 | 0.00 | 0.00 | 1020.7 | |
| 20260831155526 | 74 | 165 | 5.0 | 11.0 | 0.00 | 0.00 | 0.00 | 1021.0 | |
| 20260831155041 | 74 | 78 | 2.0 | 11.0 | 0.00 | 0.00 | 0.00 | 1021.0 | |
| 20260831154526 | 73 | 78 | 3.0 | 11.0 | 0.00 | 0.00 | 0.00 | 1021.0 | |
| 20260831154026 | 73 | 179 | 0.0 | 9.0 | 0.00 | 0.00 | 0.00 | 1021.3 | |
| 20260831153527 | 72 | 70 | 5.0 | 9.0 | 0.00 | 0.00 | 0.00 | 1021.1 | |
| 20260831153026 | 72 | 327 | 0.0 | 6.0 | 0.00 | 0.00 | 0.00 | 1021.1 | |
| 20260831152526 | 71 | 190 | 1.0 | 8.0 | 0.00 | 0.00 | 0.00 | 1021.2 | |
| 20260831152026 | 70 | 64 | 1.0 | 9.0 | 0.00 | 0.00 | 0.00 | 1021.3 | |
| 20260831151541 | 70 | 79 | 1.0 | 9.0 | 0.00 | 0.00 | 0.00 | 1021.3 | |
| 20260831151026 | 69 | 155 | 2.0 | 9.0 | 0.00 | 0.00 | 0.00 | 1021.3 | |
| 20260831150526 | 69 | 13 | 5.0 | 8.0 | 0.00 | 0.00 | 0.00 | 1021.2 | |
| 20260831150026 | 68 | 78 | 3.0 | 8.0 | 0.00 | 0.00 | 0.00 | 1021.2 | |
| 20260831145526 | 67 | 155 | 2.0 | 9.0 | 0.00 | 0.00 | 0.00 | 1021.2 |